sat.trackr.live / text

‹ back to catalog

STARLINK-36057

NORAD 66884 · 2025-283G

PAYLOAD ACTIVE UNKNOWN

§ Identity

Operator
Country
US
Launch date
2025-12-04
Launch site
AFWTR
Launch vehicle
Mass (kg)
RCS (m²)

Purposes: comms

External: N2YO · Heavens-Above · Gunter

§ Orbital elements

Epoch: 2026-09-20T12:38:56.037408Z

Period
93.85 min
Inclination
53.1577°
Eccentricity
0.0001656
Mean motion
15.34410721 rev/d
Perigee alt
461.5 km
Apogee alt
463.8 km
Semi-major
6,840.8 km
B*
5.5948e-4
RAAN
195.6950°
Arg perigee
89.7672°
Mean anomaly
270.3521°
Rev number
4,572

§ Raw data

STARLINK-360571 66884U 25283G   26263.52703747  .00018580  00000+0  55948-3 0  99912 66884  53.1577 195.6950 0001656  89.7672 270.3521 15.34410721 45720

JSON: /api/v1/satellites/66884 · /tle

For live sub-satellite position, see the globe view (requires WebGL).

§ Visibility from observer

Set your observer location to see the next 7 days of passes ≥ 10°. The values pass through the URL so the page stays shareable.

No JS? Fill the form by hand. The geolocation button needs JavaScript.